x

8723214 - Virginia Key, Fl (vakf1) Weather Station

4:54pm - Tue 16th Oct 2018 All times are EDT. -4 hours from GMT.

  • Wind
    15mph, 20mph gusts
  • Sea Temp 86°f
  • Air Temp 84°f
  • Sea Pressure 1016.5mb
  • 8723214 - Virginia Key, Fl
  • 8723214 - Virginia Key, Fl

More Historic Weather Station data

Upgrade to MSW Pro to gain access to the past 30 days of data for over 8000 Wavebouys and Weather Stations around the globe.

Join

Comparision Forecast

View Surf forecast
   
Tue 10/16 4:54pm 15 20 mph 1016.5mb 86f 84f
4:48pm 17 21 mph 1016.4mb 86f 84f
4:42pm 15 20 mph 1016.4mb 86f 84f
4:36pm 15 20 mph 1016.4mb 86f 84f
4:30pm 15 18 mph 1016.3mb 86f 85f
4:24pm 15 20 mph 1016.4mb 86f 85f
4:18pm 17 21 mph 1016.3mb 86f 85f
4:12pm 15 18 mph 1016.4mb 86f 84f
4:06pm 15 20 mph 1016.4mb 86f 85f
4:00pm 14 17 mph 1016.4mb 86f 84f
3:54pm 14 18 mph 1016.5mb 86f 85f
3:48pm 16 21 mph 1016.5mb 86f 84f
3:42pm 15 21 mph 1016.6mb 86f 84f
3:36pm 17 21 mph 1016.6mb 86f 84f
3:30pm 16 20 mph 1016.6mb 86f 84f
3:24pm 16 20 mph 1016.6mb 86f 84f
3:18pm 17 21 mph 1016.7mb 86f 84f
3:12pm 16 20 mph 1016.7mb 86f 84f
3:06pm 15 20 mph 1016.7mb 86f 84f
3:00pm 16 20 mph 1016.7mb 86f 84f
2:54pm 16 20 mph 1016.6mb 86f 84f
2:48pm 16 21 mph 1016.7mb 86f 84f
2:42pm 15 20 mph 1016.7mb 86f 84f
2:36pm 16 21 mph 1016.7mb 86f 84f
2:30pm 15 21 mph 1016.8mb 86f 84f
2:24pm 16 21 mph 1016.8mb 86f 84f
2:18pm 16 22 mph 1016.9mb 86f 84f
2:12pm 17 22 mph 1016.9mb 86f 84f
2:06pm 17 22 mph 1016.9mb 85f 84f
2:00pm 17 22 mph 1016.9mb 85f 84f
1:54pm 18 22 mph 1017mb 85f 84f
1:48pm 20 22 mph 1017.1mb 85f 84f
1:42pm 18 23 mph 1017.1mb 85f 84f
1:36pm 16 22 mph 1017.2mb 85f 84f
1:30pm 17 21 mph 1017.3mb 85f 84f
1:24pm 16 21 mph 1017.5mb 85f 84f
1:18pm 16 22 mph 1017.6mb 85f 84f
1:12pm 17 22 mph 1017.7mb 85f 84f
1:06pm 17 21 mph 1017.8mb 85f 84f
1:00pm 17 21 mph 1017.9mb 85f 84f
12:18pm 18 22 mph 1018.3mb 85f 84f
12:12pm 18 22 mph 1018.4mb 85f 84f
12:06pm 15 22 mph 1018.5mb 85f 84f
12:00pm 17 21 mph 1018.5mb 85f 84f
11:54am 18 23 mph 1018.5mb 85f 84f
11:48am 15 20 mph 1018.6mb 85f 84f
11:42am 17 22 mph 1018.7mb 85f 84f
11:36am 17 21 mph 1018.7mb 85f 84f
11:30am 15 22 mph 1018.8mb 85f 84f
11:24am 17 20 mph 1018.9mb 85f 84f
11:18am 15 20 mph 1018.9mb 85f 84f
11:12am 14 21 mph 1018.9mb 85f 84f
11:06am 17 21 mph 1018.9mb 85f 84f
11:00am 15 20 mph 1018.9mb 85f 84f
10:54am 16 20 mph 1018.9mb 85f 84f
10:48am 15 20 mph 1018.9mb 85f 84f
10:42am 15 21 mph 1019mb 85f 84f
10:36am 16 20 mph 1019mb 85f 84f
10:30am 15 22 mph 1019.1mb 85f 84f
10:24am 16 21 mph 1019.1mb 85f 84f
10:18am 16 21 mph 1019.1mb 85f 84f
10:12am 15 20 mph 1019.1mb 85f 84f
10:06am 15 20 mph 1019.2mb 85f 84f
10:00am 15 20 mph 1019.1mb 85f 84f
9:54am 15 20 mph 1019.1mb 85f 84f
9:48am 17 22 mph 1019.1mb 85f 84f
9:42am 16 21 mph 1018.9mb 85f 84f
9:36am 15 20 mph 1018.9mb 85f 84f
9:30am 17 21 mph 1018.9mb 85f 84f
9:24am 15 18 mph 1018.9mb 85f 84f
9:18am 15 20 mph 1018.9mb 85f 84f
9:12am 14 18 mph 1018.9mb 85f 84f
9:06am 14 20 mph 1018.8mb 85f 84f
9:00am 15 21 mph 1018.8mb 85f 84f
8:48am 16 20 mph 1018.7mb 85f 84f
8:42am 15 20 mph 1018.6mb 85f 83f
8:36am 16 20 mph 1018.6mb 85f 84f
8:30am 16 20 mph 1018.6mb 85f 83f
8:24am 15 20 mph 1018.5mb 85f 84f
8:18am 14 18 mph 1018.6mb 85f 83f
8:12am 16 20 mph 1018.4mb 85f 83f
8:06am 14 20 mph 1018.4mb 85f 84f
8:00am 16 20 mph 1018.3mb 85f 84f
7:54am 15 20 mph 1018.2mb 85f 84f
7:48am 14 17 mph 1018.2mb 85f 83f
7:42am 14 17 mph 1018.1mb 85f 83f
7:36am 14 17 mph 1018.1mb 85f 83f
7:30am 14 18 mph 1018.1mb 85f 83f
7:24am 15 18 mph 1018.1mb 85f 83f
7:18am 11 16 mph 1018mb 85f 83f
7:12am 13 17 mph 1018mb 85f 83f
7:06am 14 17 mph 1018mb 85f 83f
7:00am 14 17 mph 1018mb 85f 83f
6:54am 15 20 mph 1017.9mb 85f 83f
6:48am 13 18 mph 1017.9mb 85f 83f
6:42am 16 22 mph 1017.8mb 85f 83f
6:36am 13 15 mph 1017.7mb 85f 83f
6:30am 11 16 mph 1017.7mb 85f 83f
6:24am 13 16 mph 1017.6mb 85f 83f
6:18am 14 18 mph 1017.6mb 85f 83f
6:12am 13 17 mph 1017.6mb 85f 83f
6:06am 13 16 mph 1017.6mb 85f 83f
6:00am 14 17 mph 1017.5mb 85f 83f
5:54am 14 17 mph 1017.5mb 85f 83f
5:48am 14 17 mph 1017.5mb 85f 83f
5:42am 14 17 mph 1017.5mb 85f 83f
5:36am 14 18 mph 1017.4mb 85f 83f
5:30am 15 17 mph 1017.4mb 85f 83f
5:24am 15 18 mph 1017.3mb 85f 83f
5:18am 14 16 mph 1017.3mb 85f 83f
5:12am 13 17 mph 1017.3mb 85f 83f
5:06am 11 15 mph 1017.3mb 85f 83f
5:00am 13 17 mph 1017.3mb 85f 83f
4:54am 14 16 mph 1017.3mb 85f 83f
4:48am 13 16 mph 1017.2mb 85f 83f
4:42am 14 17 mph 1017.2mb 85f 83f
4:36am 14 17 mph 1017.3mb 85f 83f
4:30am 10 15 mph 1017.3mb 85f 83f
4:24am 13 17 mph 1017.2mb 85f 83f
4:18am 11 17 mph 1017.2mb 85f 83f
4:12am 13 16 mph 1017.2mb 85f 83f
4:06am 14 17 mph 1017.2mb 85f 83f
4:00am 13 16 mph 1017.3mb 85f 83f
3:18am 13 17 mph 1017.6mb 85f 83f
3:12am 15 18 mph 1017.6mb 85f 82f
3:06am 14 17 mph 1017.6mb 85f 83f
3:00am 14 17 mph 1017.7mb 85f 83f
2:54am 13 17 mph 1017.7mb 85f 83f
2:48am 13 18 mph 1017.7mb 85f 83f
2:42am 15 18 mph 1017.7mb 85f 83f
2:36am 15 18 mph 1017.7mb 85f 83f
2:30am 15 20 mph 1017.7mb 85f 83f
2:24am 15 17 mph 1017.7mb 85f 83f
2:18am 11 17 mph 1017.7mb 85f 83f
2:12am 14 17 mph 1017.7mb 85f 83f
2:06am 13 15 mph 1017.8mb 85f 83f
2:00am 10 15 mph 1017.8mb 85f 82f
1:54am 17 21 mph 1017.8mb 85f 82f
1:48am 14 18 mph 1017.8mb 85f 83f
1:42am 14 18 mph 1017.8mb 85f 83f
1:36am 14 16 mph 1017.8mb 85f 83f
1:30am 13 17 mph 1017.9mb 85f 84f
1:24am 15 18 mph 1017.9mb 85f 83f
1:18am 14 16 mph 1018mb 85f 83f
1:12am 13 17 mph 1018mb 85f 83f
1:06am 13 17 mph 1018mb 85f 84f
1:00am 14 18 mph 1018.1mb 85f 84f
12:54am 14 17 mph 1018.2mb 85f 84f
12:48am 14 18 mph 1018.2mb 85f 84f
12:42am 16 20 mph 1018.2mb 85f 84f
12:36am 14 18 mph 1018.2mb 85f 84f
12:30am 15 20 mph 1018.2mb 85f 84f